Flag Weather past 2 weeks in Vientiane, Laos

Now
72 °F

Fog.


Feels Like: 71 °F
Forecast: 60 / 90 °F
Wind: 5 mph from Northwest

Location: Vientiane Airport

Current Time: Nov 24, 2014 at 8:33:25 AM

Latest Report: Nov 24, 2014 at 8:00 AM


Visibility: 3 mi

Pressure: 29.92 "Hg

Humidity: 83%

Dew point: 66 °F

Location of VientianeLocation

Historic Weather in Vientiane — Graph

°F

Vientiane temperature yesterday

Maximum temperature yesterday: 88 °F (at 2:00 PM)
Minimum temperature yesterday: 70 °F (at 6:30 AM)
Average temperature yesterday: 79 °F

Past Weeks' High & Low Weather Summary

 TemperatureHumidityPressure
High91 °F (Nov 11, 1:30 PM)94% (Nov 11, 6:00 AM)30.09 "Hg (Nov 11, 6:00 AM)
Low66 °F (Nov 20, 6:00 AM)46% (Nov 18, 1:00 PM)29.77 "Hg (Nov 11, 3:30 PM)
Average80 °F69%29.94 "Hg
* Reported Nov 9 7:00 AM — Nov 24 7:30 AM, Vientiane, Weather by CustomWeather, © 2014

Note: Actual official high and low records may vary slightly from our data, if they occured in-between our weather recording intervals... More about our weather records

Advertising

Vientiane weather history for previous 24 hours

 ConditionsComfort  
Time TempWeatherWind HumidityBarometerVisibility
7:30 AM
Nov 24
68 °FFog.2 mph88%29.89 "Hg3 mi
6:30 AM68 °FFog.2 mph88%29.89 "Hg2 mi
6:00 AM68 °FFog.5 mph88%29.89 "Hg2 mi
11:00 PM
Nov 23
72 °FFog.2 mph88%29.92 "Hg2 mi
10:30 PM73 °FFog.5 mph83%29.92 "Hg2 mi
10:00 PM73 °FFog.5 mph83%29.92 "Hg2 mi
9:30 PM77 °FFog.2 mph74%29.89 "Hg2 mi
9:00 PM77 °FFog.2 mph74%29.89 "Hg2 mi
8:30 PM79 °FFog.2 mph70%29.86 "Hg2 mi
8:00 PM79 °FFog.2 mph70%29.86 "Hg2 mi
7:00 PM81 °FFog.2 mph66%29.86 "Hg2 mi
6:30 PM82 °FFog.2 mph62%29.83 "Hg2 mi
6:00 PM82 °FFog.2 mph62%29.83 "Hg3 mi
5:30 PM88 °FPassing clouds.2 mph49%29.83 "Hg5 mi
5:00 PM88 °FPassing clouds.2 mph49%29.83 "Hg5 mi
3:00 PM88 °FPassing clouds.5 mph49%29.86 "Hg5 mi
2:30 PM88 °FScattered clouds.2 mph52%29.86 "Hg5 mi
2:00 PM88 °FScattered clouds.2 mph52%29.86 "Hg5 mi
1:30 PM86 °FScattered clouds.2 mph55%29.89 "Hg5 mi
1:00 PM86 °FScattered clouds.5 mph55%29.89 "Hg5 mi
12:30 PM82 °FScattered clouds.2 mph62%29.92 "Hg5 mi
12:00 PM82 °FScattered clouds.2 mph62%29.92 "Hg5 mi
11:30 AM82 °FScattered clouds.2 mph62%29.98 "Hg5 mi
11:00 AM82 °FScattered clouds.2 mph62%29.98 "Hg5 mi
10:30 AM79 °FPassing clouds.2 mph70%29.98 "Hg4 mi
10:00 AM79 °FPassing clouds.5 mph70%29.98 "Hg4 mi
9:30 AM72 °FFog.5 mph83%29.98 "Hg3 mi
9:00 AM72 °FFog.5 mph83%29.98 "Hg3 mi
8:30 AM72 °FFog.2 mph88%29.95 "Hg3 mi
8:00 AM72 °FFog.2 mph88%29.95 "Hg3 mi
Weather by CustomWeather, © 2014

See weather overviewHow to use our weather pages